Location: Unspecified
(45.4615°N, 74.0512°W)
Time: 23:20:39
(UTC-04:00)

Okean 3 - Visible Passes

Search period start: 25 September 2018 00:00
Search period end: 05 October 2018 00:00
Orbit: 576 x 603 km, 82.5° (Epoch: 24 September)

Date Brightness Start Highest point End Pass type
(mag) Time Alt. Az. Time Alt. Az. Time Alt. Az.
25 Sep 6.5 03:28:38 10° E 03:29:43 11° E 03:30:48 10° ENE visible
25 Sep 3.3 05:04:16 29° SSW 05:06:21 70° W 05:10:33 10° N visible
26 Sep 6.1 03:36:31 15° ESE 03:37:34 16° E 03:40:08 10° NE visible
26 Sep 3.7 05:13:06 34° SW 05:14:25 46° WNW 05:18:29 10° N visible
27 Sep 5.6 03:45:16 23° E 03:45:27 23° E 03:48:46 10° NE visible
27 Sep 4.2 05:21:50 30° W 05:22:32 32° WNW 05:26:20 10° N visible
28 Sep 5.1 03:53:56 31° ENE 03:53:56 31° ENE 03:57:09 10° NNE visible
28 Sep 4.7 05:30:30 22° WNW 05:30:42 22° WNW 05:34:02 10° NNW visible
29 Sep 4.8 04:02:32 37° NE 04:02:32 37° NE 04:05:24 10° NNE visible
29 Sep 5.1 05:39:06 16° WNW 05:39:06 16° WNW 05:41:31 10° NNW visible
30 Sep 4.8 04:11:03 34° NNE 04:11:03 34° NNE 04:13:32 10° NNE visible
30 Sep 5.5 05:47:38 11° WNW 05:47:38 11° WNW 05:48:25 10° NW visible
01 Oct 5.0 04:19:32 28° N 04:19:32 28° N 04:21:35 10° N visible
02 Oct 5.3 04:27:59 21° N 04:27:59 21° N 04:29:32 10° N visible
03 Oct 5.6 04:36:23 16° NNW 04:36:23 16° NNW 04:37:23 10° N visible
04 Oct 5.9 04:44:45 12° NNW 04:44:45 12° NNW 04:45:06 10° NNW visible
